DECAYED
Showing default

PROMETHEUS 2-1, 41854 (Decayed)

Orbit data source: Space-Track

PROMETHEUS 2-1, 41854 was a payload satellite owned by SOCOM (US) in LEO that was launched on Fri, 11 Nov 2016 UTC via an ATLAS V 401 launch vehicle from the Air Force Western Test Range (AFWTR). Payload-class satellites include a variety of spacecraft equipped with specific instruments for various scientific and technological missions. These include communications satellites like Starlink; space stations such as the ISS; scientific satellites like the Hubble; Earth observation satellites from companies like Planet Labs, Umbra, and HawkEye 360; GPS; miniature CubeSats for education and research; and military/defense satellites.

Not visible in the next 10 days
Identifier
41854, 2016-067G
Orbit
Decayed
Country
Flag of USUS
Related business
Manufacturer
LANL
Mission
Decayed Defense Communications
Bus & Motor
CUBESAT 1.5U, Unknown motor
Mass
2 kg wet, 2 kg dry
Launch date (UTC)
2016-11-11 (9 years ago)
Launch vehicle
ATLAS V 401
Launch site
Air Force Western Test Range (AFWTR)
Object type
Payload
Rocket body
Debris
Shape & HBR
Box + 2 Pan, 0.1 m
Radar Cross Section
0.015 m², Small (<0.1 m²)

Expand to show TLE details & history
Last TLE update: 2 months ago

TLE from 2 months ago
0 PROMETHEUS 2-1
1 41854U 16067G   25337.81077914  .17008389  30870-5  38622-3 0  9992
2 41854  98.0134 216.0906 0003483 109.9703 250.1974 16.46534263498100
Epoch: 2025-12-03T19:27Z
TLE epoch observation values (Epoch: 2025-12-03T19:27:31.317Z)
Latitude
0.00003°
Longitude
-148.66612°
Altitude
152.49 km
Speed
7.814 km/s
True Right ascension
14h 24m 21s
True Declination
0° 00' 00"
Sunlit
Object was in daylight at epoch
Visualization orbit readout
Latitude
Unknown
Longitude
Unknown
Altitude
Unknown
Speed
Unknown
Apparent Right ascension
Unknown
Apparent Declination
Unknown
Sunlit
N/A
Visualization observer readout
Local Sidereal Time
05:04:10
Azimuth
Unknown
Elevation
Unknown
Doppler factor
Unknown
Orbital elements
Apogee altitude
147.578 km
Perigee altitude
143.034 km
Semi-major axis
6,523.443 km
Eccentricity
0.00035
Inclination
98.0134°
RAAN
216.0906°
Arg. of periapsis
109.9703°
True anomaly
250.15985°
Mean anomaly
250.1974°
Eccentric anomaly
250.17863°
Mean motion
4.11934 °/min
Orbital period
87.39 mins
BSTAR
0.00038622
Loading maneuver chart data...
Computing Atmospheric mass density...
Loading historical data...
Loading historical data...
Loading historical data...
Loading historical data...
Loading historical data...
Loading historical data...
Loading historical data...

Documentation

Showing up to 5 results
|